EA2AFZ-W Weather Reports


Display with metric or nautical units.
time (UTC)temp
F
wind
direction
speed
MPH
gust
MPH
rain 1hr
in
rain 24hr
in
rain mn
in
humidity
%
barometer
mb
20260503004507 57 290 3.0 3.0 0.00 0.00 0.00 80 1014.0
20260503001604 58 290 3.0 3.0 0.00 0.00 0.00 82 1014.0
20260502234602 58 290 3.0 3.0 0.00 0.00 0.00 80 1014.0
20260502231559 59 290 3.0 3.0 0.00 0.00 0.00 80 1014.0
20260502224556 60 290 3.0 3.0 0.00 0.00 0.00 80 1014.0
20260502221555 60 331 2.0 2.0 0.00 0.00 0.00 79 1014.0
20260502214551 60 160 8.0 8.0 0.00 0.00 0.00 81 1015.0
20260502211549 60 160 8.0 8.0 0.00 0.00 0.00 78 1014.0
20260502204546 60 160 8.0 8.0 0.00 0.00 0.00 73 1014.0
20260502201544 61 160 8.0 8.0 0.00 0.00 0.00 71 1013.0
20260502194542 62 160 8.0 8.0 0.00 0.00 0.00 70 1014.0
20260502191539 62 160 8.0 8.0 0.00 0.00 0.00 71 1014.0
20260502184536 63 160 8.0 8.0 0.00 0.00 0.00 70 1014.0
20260502181533 63 160 8.0 8.0 0.00 0.00 0.00 70 1014.0
20260502161522 64 160 8.0 8.0 0.00 0.00 0.00 71 1014.0
20260502151517 66 160 8.0 8.0 0.00 0.00 0.00 80 1015.0
20260502121601 65 140 15.0 15.0 0.00 0.00 0.00 71 1015.0
20260502114558 66 140 15.0 15.0 0.00 0.00 0.00 74 1016.0
20260502111555 66 140 15.0 15.0 0.00 0.00 0.00 73 1016.0
20260502104552 66 140 15.0 15.0 0.00 0.00 0.00 63 1016.0
20260502101551 65 140 15.0 15.0 0.00 0.00 0.00 61 1016.0
20260502071535 65 140 15.0 15.0 0.00 0.00 0.00 57 1016.0
20260502064532 65 140 15.0 15.0 0.00 0.00 0.00 57 1016.0
20260502061529 65 140 15.0 15.0 0.00 0.00 0.00 56 1017.0
20260502054527 65 140 15.0 15.0 0.00 0.00 0.00 56 1017.0
20260502051524 65 140 15.0 15.0 0.00 0.00 0.00 57 1017.0
20260502044521 65 140 15.0 15.0 0.00 0.00 0.00 59 1016.0
20260502041519 65 140 15.0 15.0 0.00 0.00 0.00 65 1017.0
20260502034517 65 140 16.0 16.0 0.00 0.00 0.00 65 1016.0
20260502031514 65 140 11.0 11.0 0.00 0.00 0.00 65 1017.0
20260502024512 64 140 11.0 11.0 0.00 0.00 0.00 78 1016.0
20260502021509 64 140 11.0 11.0 0.00 0.00 0.00 78 1017.0
20260502014606 64 140 11.0 11.0 0.00 0.00 0.00 78 1017.0
20260502011604 64 140 11.0 11.0 0.00 0.00 0.00 78 1017.0